sat.trackr.live / text

‹ back to catalog

STARLINK-35839

NORAD 67169 · 2025-303G

PAYLOAD ACTIVE UNKNOWN

§ Identity

Operator
Country
US
Launch date
2025-12-17
Launch site
AFETR
Launch vehicle
Mass (kg)
RCS (m²)

Purposes: comms

External: N2YO · Heavens-Above · Gunter

§ Orbital elements

Epoch: 2026-09-19T09:14:51.450144Z

Period
94.27 min
Inclination
43.0013°
Eccentricity
0.0001078
Mean motion
15.27585126 rev/d
Perigee alt
482.3 km
Apogee alt
483.8 km
Semi-major
6,861.2 km
B*
5.1797e-4
RAAN
297.2388°
Arg perigee
271.1531°
Mean anomaly
88.9197°
Rev number
4,235

§ Raw data

STARLINK-358391 67169U 25303G   26262.38531771  .00014021  00000+0  51797-3 0  99942 67169  43.0013 297.2388 0001078 271.1531  88.9197 15.27585126 42355

JSON: /api/v1/satellites/67169 · /tle

For live sub-satellite position, see the globe view (requires WebGL).

§ Visibility from observer

Set your observer location to see the next 7 days of passes ≥ 10°. The values pass through the URL so the page stays shareable.

No JS? Fill the form by hand. The geolocation button needs JavaScript.